Time,TemperatureF,DewpointF,PressureIn,WindDirection,WindDirectionDegrees,WindSpeedMPH,WindSpeedGustMPH,Humidity,HourlyPrecipIn,Conditions,Clouds,dailyrainin,SolarRadiationWatts/m^2,SoftwareType,DateUTC
2013-04-12 00:03:00,27.0,25.0,-100.00,ENE,59,8.0,17.0,91,0.00,,,0.00,0.000000,,2013-04-12 05:03:00,
2013-04-12 00:32:00,26.0,23.0,-100.00,ENE,59,7.0,17.0,90,0.00,,,0.00,0.000000,,2013-04-12 05:32:00,
2013-04-12 00:42:00,26.0,23.0,-100.00,ENE,59,7.0,17.0,90,0.00,,,0.00,0.000000,,2013-04-12 05:42:00,
2013-04-12 00:52:00,26.0,23.0,-100.00,ENE,59,7.0,17.0,90,0.00,,,0.00,0.000000,,2013-04-12 05:52:00,
2013-04-12 01:02:00,26.0,23.0,-100.00,ENE,59,7.0,17.0,90,0.00,,,0.00,0.000000,,2013-04-12 06:02:00,
2013-04-12 01:32:00,26.0,24.0,-100.00,NE,36,5.0,13.0,92,0.00,,,0.00,0.000000,,2013-04-12 06:32:00,
2013-04-12 01:42:00,26.0,24.0,-100.00,NE,36,5.0,13.0,92,0.00,,,0.00,0.000000,,2013-04-12 06:42:00,
2013-04-12 01:52:00,26.0,24.0,-100.00,NE,36,5.0,13.0,92,0.00,,,0.00,0.000000,,2013-04-12 06:52:00,
2013-04-12 02:01:00,26.0,24.0,-100.00,NE,36,5.0,13.0,92,0.00,,,0.00,0.000000,,2013-04-12 07:01:00,
2013-04-12 02:32:00,25.0,23.0,-100.00,NNE,32,5.0,9.0,93,0.00,,,-99.99,0.000000,,2013-04-12 07:32:00,
2013-04-12 02:42:00,25.0,23.0,-100.00,NNE,32,5.0,9.0,93,0.00,,,-99.99,0.000000,,2013-04-12 07:42:00,
2013-04-12 02:52:00,25.0,23.0,-100.00,NNE,32,5.0,9.0,93,0.00,,,-99.99,0.000000,,2013-04-12 07:52:00,
2013-04-12 03:03:00,25.0,23.0,-100.00,NNE,32,5.0,9.0,93,0.00,,,-99.99,0.000000,,2013-04-12 08:03:00,
2013-04-12 03:32:00,25.0,23.0,-100.00,NNE,25,6.0,15.0,93,0.00,,,0.00,0.000000,,2013-04-12 08:32:00,
2013-04-12 03:43:00,25.0,23.0,-100.00,NNE,25,6.0,15.0,93,0.00,,,0.00,0.000000,,2013-04-12 08:43:00,
2013-04-12 03:52:00,25.0,23.0,-100.00,NNE,25,6.0,15.0,93,0.00,,,0.00,0.000000,,2013-04-12 08:52:00,
2013-04-12 04:02:00,25.0,23.0,-100.00,NNE,25,6.0,15.0,93,0.00,,,0.00,0.000000,,2013-04-12 09:02:00,
2013-04-12 04:33:00,25.0,23.0,-100.00,NE,37,7.0,14.0,93,0.00,,,0.00,0.000000,,2013-04-12 09:33:00,
2013-04-12 04:44:00,25.0,23.0,-100.00,NE,37,7.0,14.0,93,0.00,,,0.00,0.000000,,2013-04-12 09:44:00,
2013-04-12 04:53:00,25.0,23.0,-100.00,NE,37,7.0,14.0,93,0.00,,,0.00,0.000000,,2013-04-12 09:53:00,
2013-04-12 05:03:00,25.0,23.0,-100.00,NE,37,7.0,14.0,93,0.00,,,0.00,0.000000,,2013-04-12 10:03:00,
2013-04-12 05:34:00,25.0,23.0,-100.00,NE,40,8.0,17.0,92,0.00,,,0.00,0.000000,,2013-04-12 10:34:00,
2013-04-12 05:42:00,25.0,23.0,-100.00,NE,40,8.0,17.0,92,0.00,,,0.00,0.000000,,2013-04-12 10:42:00,
2013-04-12 05:53:00,25.0,23.0,-100.00,NE,40,8.0,17.0,92,0.00,,,0.00,0.000000,,2013-04-12 10:53:00,
2013-04-12 06:02:00,25.0,23.0,-100.00,NE,40,8.0,17.0,92,0.00,,,0.00,0.000000,,2013-04-12 11:02:00,
2013-04-12 06:33:00,25.0,23.0,-100.00,NE,43,9.0,17.0,91,0.00,,,0.00,0.000000,,2013-04-12 11:33:00,
2013-04-12 06:43:00,25.0,23.0,-100.00,NE,43,9.0,17.0,91,0.00,,,0.00,0.000000,,2013-04-12 11:43:00,
2013-04-12 06:52:00,25.0,23.0,-100.00,NE,43,9.0,17.0,91,0.00,,,0.00,0.000000,,2013-04-12 11:52:00,
2013-04-12 07:02:00,25.0,23.0,-100.00,NE,43,9.0,17.0,91,0.00,,,0.00,0.000000,,2013-04-12 12:02:00,
2013-04-12 07:33:00,25.0,22.0,-100.00,NE,40,8.0,16.0,89,0.00,,,0.00,5.000000,,2013-04-12 12:33:00,
2013-04-12 07:43:00,25.0,22.0,-100.00,NE,40,8.0,16.0,89,0.00,,,0.00,5.000000,,2013-04-12 12:43:00,
2013-04-12 07:53:00,25.0,22.0,-100.00,NE,40,8.0,16.0,89,0.00,,,0.00,5.000000,,2013-04-12 12:53:00,
2013-04-12 08:03:00,25.0,22.0,-100.00,NE,40,8.0,16.0,89,0.00,,,0.00,5.000000,,2013-04-12 13:03:00,
2013-04-12 08:32:00,26.0,23.0,-100.00,NE,37,8.0,15.0,87,0.00,,,0.00,65.000000,,2013-04-12 13:32:00,
2013-04-12 08:43:00,26.0,23.0,-100.00,NE,37,8.0,15.0,87,0.00,,,0.00,65.000000,,2013-04-12 13:43:00,
2013-04-12 08:53:00,26.0,23.0,-100.00,NE,37,8.0,15.0,87,0.00,,,0.00,65.000000,,2013-04-12 13:53:00,
2013-04-12 09:03:00,26.0,23.0,-100.00,NE,37,8.0,15.0,87,0.00,,,0.00,65.000000,,2013-04-12 14:03:00,
2013-04-12 09:33:00,27.0,23.0,-100.00,NE,37,7.0,14.0,84,0.00,,,0.00,147.000000,,2013-04-12 14:33:00,
2013-04-12 09:43:00,27.0,23.0,-100.00,NE,37,7.0,14.0,84,0.00,,,0.00,147.000000,,2013-04-12 14:43:00,
2013-04-12 09:53:00,27.0,23.0,-100.00,NE,37,7.0,14.0,84,0.00,,,0.00,147.000000,,2013-04-12 14:53:00,
2013-04-12 10:02:00,27.0,23.0,-100.00,NE,37,7.0,14.0,84,0.00,,,0.00,147.000000,,2013-04-12 15:02:00,
2013-04-12 10:33:00,29.0,23.0,-100.00,NE,39,8.0,15.0,79,0.00,,,-99.99,269.000000,,2013-04-12 15:33:00,
2013-04-12 10:43:00,29.0,23.0,-100.00,NE,39,8.0,15.0,79,0.00,,,-99.99,269.000000,,2013-04-12 15:43:00,
2013-04-12 10:53:00,29.0,23.0,-100.00,NE,39,8.0,15.0,79,0.00,,,-99.99,269.000000,,2013-04-12 15:53:00,
2013-04-12 11:03:00,29.0,23.0,-100.00,NE,39,8.0,15.0,79,0.00,,,-99.99,269.000000,,2013-04-12 16:03:00,
2013-04-12 11:34:00,30.0,23.0,-100.00,NE,42,10.0,16.0,74,0.00,,,-99.99,411.000000,,2013-04-12 16:34:00,
2013-04-12 11:43:00,30.0,23.0,-100.00,NE,42,10.0,16.0,74,0.00,,,-99.99,411.000000,,2013-04-12 16:43:00,
2013-04-12 11:53:00,30.0,23.0,-100.00,NE,42,10.0,16.0,74,0.00,,,-99.99,411.000000,,2013-04-12 16:53:00,
2013-04-12 12:03:00,30.0,23.0,-100.00,NE,42,10.0,16.0,74,0.00,,,-99.99,411.000000,,2013-04-12 17:03:00,
2013-04-12 12:34:00,32.0,24.0,-100.00,NE,47,8.0,16.0,71,0.01,,,0.01,496.000000,,2013-04-12 17:34:00,
2013-04-12 12:47:00,32.0,24.0,-100.00,NE,47,8.0,16.0,71,0.01,,,0.01,496.000000,,2013-04-12 17:47:00,
2013-04-12 13:05:00,32.0,24.0,-100.00,NE,47,8.0,16.0,71,0.01,,,0.01,496.000000,,2013-04-12 18:05:00,
2013-04-12 13:06:00,33.0,22.0,-100.00,NE,42,7.0,14.0,64,0.07,,,0.08,551.000000,,2013-04-12 18:06:00,
2013-04-12 14:33:00,34.0,23.0,-100.00,NE,39,6.0,12.0,65,0.10,,,0.18,572.000000,,2013-04-12 19:33:00,
2013-04-12 14:43:00,34.0,23.0,-100.00,NE,39,6.0,12.0,65,0.10,,,0.18,572.000000,,2013-04-12 19:43:00,
2013-04-12 14:53:00,34.0,23.0,-100.00,NE,39,6.0,12.0,65,0.10,,,0.18,572.000000,,2013-04-12 19:53:00,
2013-04-12 15:02:00,34.0,23.0,-100.00,NE,39,6.0,12.0,65,0.10,,,0.18,572.000000,,2013-04-12 20:02:00,
2013-04-12 15:33:00,34.0,23.0,-100.00,NE,35,6.0,13.0,63,0.02,,,0.20,498.000000,,2013-04-12 20:33:00,
2013-04-12 15:43:00,34.0,23.0,-100.00,NE,35,6.0,13.0,63,0.02,,,0.20,498.000000,,2013-04-12 20:43:00,
2013-04-12 15:52:00,34.0,23.0,-100.00,NE,35,6.0,13.0,63,0.02,,,0.20,498.000000,,2013-04-12 20:52:00,
2013-04-12 16:02:00,34.0,23.0,-100.00,NE,35,6.0,13.0,63,0.02,,,0.20,498.000000,,2013-04-12 21:02:00,
2013-04-12 16:33:00,33.0,22.0,-100.00,NE,42,6.0,13.0,63,0.00,,,0.20,383.000000,,2013-04-12 21:33:00,
2013-04-12 16:43:00,33.0,22.0,-100.00,NE,42,6.0,13.0,63,0.00,,,0.20,383.000000,,2013-04-12 21:43:00,
2013-04-12 16:53:00,33.0,22.0,-100.00,NE,42,6.0,13.0,63,0.00,,,0.20,383.000000,,2013-04-12 21:53:00,
2013-04-12 17:02:00,33.0,22.0,-100.00,NE,42,6.0,13.0,63,0.00,,,0.20,383.000000,,2013-04-12 22:02:00,
2013-04-12 17:33:00,33.0,23.0,-100.00,North,9,4.0,11.0,67,0.00,,,0.20,291.000000,,2013-04-12 22:33:00,
2013-04-12 17:43:00,33.0,23.0,-100.00,North,9,4.0,11.0,67,0.00,,,0.20,291.000000,,2013-04-12 22:43:00,
2013-04-12 17:52:00,33.0,23.0,-100.00,North,9,4.0,11.0,67,0.00,,,0.20,291.000000,,2013-04-12 22:52:00,
2013-04-12 18:03:00,33.0,23.0,-100.00,North,9,4.0,11.0,67,0.00,,,0.20,291.000000,,2013-04-12 23:03:00,
2013-04-12 18:32:00,32.0,26.0,-100.00,North,11,5.0,11.0,77,0.00,,,0.20,220.000000,,2013-04-12 23:32:00,
2013-04-12 18:42:00,32.0,26.0,-100.00,North,11,5.0,11.0,77,0.00,,,0.20,220.000000,,2013-04-12 23:42:00,
2013-04-12 18:52:00,32.0,26.0,-100.00,North,11,5.0,11.0,77,0.00,,,0.20,220.000000,,2013-04-12 23:52:00,
2013-04-12 19:02:00,32.0,26.0,-100.00,North,11,5.0,11.0,77,0.00,,,0.20,220.000000,,2013-04-13 00:02:00,
2013-04-12 19:32:00,30.0,27.0,-100.00,NNE,17,3.0,6.0,87,0.00,,,-99.99,116.000000,,2013-04-13 00:32:00,
2013-04-12 19:42:00,30.0,27.0,-100.00,NNE,17,3.0,6.0,87,0.00,,,-99.99,116.000000,,2013-04-13 00:42:00,
2013-04-12 19:52:00,30.0,27.0,-100.00,NNE,17,3.0,6.0,87,0.00,,,-99.99,116.000000,,2013-04-13 00:52:00,
2013-04-12 20:02:00,30.0,27.0,-100.00,NNE,17,3.0,6.0,87,0.00,,,-99.99,116.000000,,2013-04-13 01:02:00,
2013-04-12 20:33:00,28.0,26.0,-100.00,NE,36,4.0,7.0,93,0.00,,,0.20,18.000000,,2013-04-13 01:33:00,
2013-04-12 20:43:00,28.0,26.0,-100.00,NE,36,4.0,7.0,93,0.00,,,0.20,18.000000,,2013-04-13 01:43:00,
2013-04-12 20:52:00,28.0,26.0,-100.00,NE,36,4.0,7.0,93,0.00,,,0.20,18.000000,,2013-04-13 01:52:00,
2013-04-12 21:02:00,28.0,26.0,-100.00,NE,36,4.0,7.0,93,0.00,,,0.20,18.000000,,2013-04-13 02:02:00,
2013-04-12 21:33:00,27.0,26.0,-100.00,NE,42,3.0,7.0,94,0.00,,,0.20,0.000000,,2013-04-13 02:33:00,
2013-04-12 21:43:00,27.0,26.0,-100.00,NE,42,3.0,7.0,94,0.00,,,0.20,0.000000,,2013-04-13 02:43:00,
2013-04-12 21:53:00,27.0,26.0,-100.00,NE,42,3.0,7.0,94,0.00,,,0.20,0.000000,,2013-04-13 02:53:00,
2013-04-12 22:02:00,27.0,26.0,-100.00,NE,42,3.0,7.0,94,0.00,,,0.20,0.000000,,2013-04-13 03:02:00,
2013-04-12 22:33:00,26.0,24.0,-100.00,NNE,30,2.0,6.0,92,0.00,,,0.20,0.000000,,2013-04-13 03:33:00,
2013-04-12 22:43:00,26.0,24.0,-100.00,NNE,30,2.0,6.0,92,0.00,,,0.20,0.000000,,2013-04-13 03:43:00,
2013-04-12 22:53:00,26.0,24.0,-100.00,NNE,30,2.0,6.0,92,0.00,,,0.20,0.000000,,2013-04-13 03:53:00,
2013-04-12 23:03:00,26.0,24.0,-100.00,NNE,30,2.0,6.0,92,0.00,,,0.20,0.000000,,2013-04-13 04:03:00,
2013-04-12 23:33:00,26.0,25.0,-100.00,NNW,343,2.0,3.0,94,0.00,,,0.20,0.000000,,2013-04-13 04:33:00,
2013-04-12 23:42:00,26.0,25.0,-100.00,NNW,343,2.0,3.0,94,0.00,,,0.20,0.000000,,2013-04-13 04:42:00,
2013-04-12 23:53:00,26.0,25.0,-100.00,NNW,343,2.0,3.0,94,0.00,,,0.20,0.000000,,2013-04-13 04:53:00,